[[{"header":{"parameterUnit":"m.s-1","parameterCategory":2,"la1":30.2991,"la2":30.254,"lo1":-89.0895,"lo2":-89.0444,"dy":0.0017,"dx":0.0017,"nx":28,"ny":28,"refTime":"2025-04-03T21:00:00:Z","depth":"0","parameterNumber":2,"parameterNumberName":"U-component_of_CURRENTS"},"data":[0,0,0,0,0,0,0,0,0,0,0,0,0,0,0,0,0,0,0,0,0,0,0,0,0,0,0,0,0,0,0,0,0,0,0,0,0,0,0,0,0,0,0,0,0,0,0,0,0,0,0,0,0,0,0,0,0,0,0.1772,0.1772,0,0.1785,0.1785,0.1785,0.178,0.178,0.1779,0.1779,0.1798,0.1798,0.1799,0,0,0,0,0,0,0,0,0,0,0,0,0,0.1765,0.1765,0.1772,0.1772,0.1773,0.1785,0.1785,0.1785,0.178,0.178,0.1779,0.1779,0.1798,0.1798,0.1799,0,0,0,0,0,0,0,0,0,0,0,0,0,0.1771,0.1765,0.1772,0.1772,0.1772,0.1785,0.1785,0.1785,0.178,0.178,0.1779,0.1779,0.1797,0.1798,0.1799,0.1813,0,0,0.1803,0.1803,0,0,0,0,0,0,0,0,0.1771,0.1771,0.1772,0.1772,0.1772,0.1781,0.179,0.1795,0.178,0.1776,0.1779,0.1779,0.1794,0.1795,0.1797,0.1814,0.1814,0.1803,0.1803,0.1804,0.1804,0,0,0,0,0,0,0,0.177,0.1771,0.1776,0.1772,0.1772,0.1779,0.1779,0.1791,0.1786,0.1776,0.1776,0.1779,0.1794,0.1796,0.1797,0.1815,0.1803,0.1804,0.1804,0.1805,0.1869,0.187,0,0,0,0,0,0,0.177,0.177,0.1776,0.1777,0.1772,0.178,0.178,0.1778,0.1786,0.1787,0.178,0.1779,0.1794,0.1796,0.1798,0.1834,0.1804,0.1805,0.1805,0.1868,0.1869,0.187,0,0,0,0,0,0,0.1769,0.177,0.1775,0.1775,0.1776,0.178,0.1778,0.1779,0.1783,0.1788,0.1789,0.1784,0.1794,0.1796,0.1813,0.1834,0.1805,0.1806,0.1867,0.1868,0.187,0.1893,0,0,0,0,0,0,0.1769,0.177,0.177,0.1775,0.1776,0.1788,0.1779,0.1779,0.1785,0.1785,0.1792,0.1793,0.1794,0.1811,0.1814,0.1835,0.1807,0.1865,0.1867,0.1869,0.1891,0.1896,0.1899,0,0,0,0,0,0.1769,0.1772,0.177,0.1771,0.1776,0.1789,0.179,0.1791,0.1786,0.1793,0.1797,0.1793,0.1826,0.1812,0.1815,0.1837,0.1864,0.1867,0.1869,0.1889,0.1895,0.1899,0,0,0,0,0,0,0.177,0.1772,0.177,0.1773,0.1782,0.1788,0.1795,0.1795,0.1803,0.1802,0.1803,0.1805,0.183,0.1831,0.1816,0.1863,0.1847,0.185,0.1861,0.1866,0.187,0.1877,0.1808,0,0,0,0,0,0.177,0.1771,0.1778,0.1781,0.1786,0.1791,0.1796,0.1798,0.1806,0.1808,0.1813,0.1824,0.1843,0.185,0.1864,0.1886,0.1894,0.1904,0.1908,0.1912,0.192,0.1955,0.1963,0.1878,0.1878,0.1878,0,0,0.1771,0.1773,0.1773,0.1782,0.1788,0.1801,0.1793,0.1805,0.1818,0.181,0.1828,0.1838,0.1852,0.1878,0.189,0.1881,0.1938,0.1915,0.1917,0.1924,0.1958,0.1967,0.1974,0.188,0.188,0.1879,0,0,0.1777,0.1776,0.1781,0.1791,0.1804,0.181,0.1815,0.1825,0.1831,0.1849,0.1852,0.1875,0.1892,0.1912,0.1924,0.196,0.1959,0.1964,0.1989,0.2023,0.203,0.2037,0.2046,0.2053,0.1965,0.1965,0.1965,0,0.1778,0.1784,0.1786,0.1799,0.1809,0.1816,0.183,0.1842,0.1855,0.1869,0.1858,0.1904,0.1912,0.1958,0.1969,0.197,0.1979,0.1967,0.2028,0.2035,0.2041,0.2049,0.2057,0.1967,0.1967,0.1966,0.1966,0,0.179,0.1798,0.1805,0.182,0.1833,0.1848,0.1864,0.188,0.1886,0.19,0.1939,0.1952,0.1982,0.199,0.1989,0.2043,0.2031,0.2028,0.2013,0.2051,0.2057,0.2064,0.1969,0.1968,0.1968,0.1967,0,0,0.1783,0.1807,0.1809,0.1817,0.1846,0.1853,0.1886,0.1917,0.1938,0.1959,0.1989,0.2028,0.2037,0.2052,0.2059,0.2086,0.213,0.2076,0.2077,0.2081,0.2191,0.2168,0.2174,0.2138,0.214,0.2141,0.2173,0,0.1791,0.181,0.1826,0.1848,0.1859,0.1883,0.191,0.1941,0.1965,0.1996,0.2028,0.2056,0.2061,0.2071,0.2106,0.2125,0.2153,0.2121,0.2158,0.2159,0.2132,0.2184,0.2063,0.2081,0.218,0.2181,0.2182,0,0.1795,0.1807,0.1827,0.1855,0.1863,0.188,0.1922,0.195,0.2006,0.2026,0.2073,0.2091,0.2144,0.213,0.22,0.2179,0.2193,0.2202,0.2203,0.2182,0.2151,0.2063,0.2091,0.1957,0.2194,0.2193,0.2192,0,0.1773,0.1805,0.1817,0.1827,0.1865,0.1881,0.1905,0.1958,0.1986,0.2044,0.2069,0.2133,0.2158,0.2201,0.223,0.2218,0.2292,0.2275,0.227,0.2267,0.2172,0.2159,0.2073,0.2329,0.2329,0.2329,0.2329,0,0.1769,0.1777,0.1805,0.1809,0.1829,0.1862,0.1894,0.1931,0.1987,0.2023,0.2081,0.2111,0.2179,0.2224,0.2247,0.2287,0.2313,0.2289,0.2286,0.2176,0.2163,0.2049,0.1977,0.233,0.233,0.233,0.2329,0,0.1741,0.1761,0.1773,0.1807,0.1817,0.1829,0.1877,0.1903,0.1962,0.201,0.2028,0.2107,0.2168,0.2227,0.2289,0.2303,0.2242,0.2343,0.22,0.218,0.2047,0.1981,0.1873,0.1826,0.2342,0.2342,0.2342,0,0.1726,0.173,0.1759,0.1763,0.1776,0.18,0.182,0.1882,0.1909,0.1998,0.2014,0.2091,0.213,0.2221,0.2254,0.2301,0.2211,0.2223,0.2188,0.2036,0.196,0.1876,0.1839,0.2062,0.2059,0.2058,0.2056,0,0.1702,0.1713,0.1724,0.1731,0.1743,0.1756,0.1785,0.1801,0.1875,0.1915,0.1953,0.1986,0.2081,0.2079,0.2163,0.2176,0.2054,0.2185,0.2063,0.1771,0.1637,0.1591,0.203,0.2038,0.204,0.2041,0.2042,0.2043,0.1685,0.1683,0.1695,0.1695,0.1705,0.1694,0.168,0.1714,0.1738,0.177,0.1849,0.1865,0.1918,0.2011,0.1999,0.1896,0.1931,0.1822,0.1766,0.1706,0.1619,0.2021,0.2008,0.201,0.2011,0.2012,0.2013,0,0.166,0.1657,0.1656,0.1646,0.1626,0.1644,0.1643,0.1613,0.16,0.1654,0.1677,0.1693,0.1668,0.1686,0.163,0.1497,0.1426,0.1404,0.1228,0.1228,0.1605,0.1551,0.1395,0.1395,0.1395,0.1395,0.1395,0.1395,0.1649,0.1632,0.1623,0.1568,0.1552,0.1487,0.1464,0.143,0.1437,0.141,0.141,0.1456,0.146,0.1311,0.1127,0.1082,0.0932,0.0838,0.0867,0.1072,0.1105,0.1137,0.107,0.0814,0.0813,0.0445,0.0441,0.0438]},{"header":{"parameterUnit":"m.s-1","parameterCategory":2,"la1":30.2991,"la2":30.254,"lo1":-89.0895,"lo2":-89.0444,"dy":0.0017,"dx":0.0017,"nx":28,"ny":28,"refTime":"2025-04-03T21:00:00:Z","depth":"0","parameterNumber":3,"parameterNumberName":"V-component_of_CURRENTS"},"data":[0,0,0,0,0,0,0,0,0,0,0,0,0,0,0,0,0,0,0,0,0,0,0,0,0,0,0,0,0,0,0,0,0,0,0,0,0,0,0,0,0,0,0,0,0,0,0,0,0,0,0,0,0,0,0,0,0,0,0.0156,0.0156,0,0.0132,0.0132,0.0131,0.0114,0.0114,0.0114,0.0113,0.0074,0.0073,0.0072,0,0,0,0,0,0,0,0,0,0,0,0,0,0.0169,0.0169,0.0156,0.0156,0.0156,0.0132,0.0132,0.0131,0.0114,0.0114,0.0114,0.0113,0.0074,0.0073,0.0072,0,0,0,0,0,0,0,0,0,0,0,0,0,0.0155,0.0169,0.0156,0.0145,0.0143,0.0132,0.0132,0.0131,0.0114,0.0114,0.0114,0.0113,0.0075,0.0073,0.0072,0.0066,0,0,0.0068,0.0067,0,0,0,0,0,0,0,0,0.0156,0.0155,0.0147,0.0145,0.0144,0.0126,0.0122,0.0109,0.0114,0.0124,0.0113,0.0113,0.0091,0.0088,0.0083,0.0064,0.0062,0.0067,0.0067,0.0066,0.0066,0,0,0,0,0,0,0,0.0157,0.0156,0.0146,0.0146,0.0145,0.0134,0.0132,0.0119,0.0108,0.0123,0.0122,0.0121,0.009,0.0084,0.0082,0.0062,0.0067,0.0066,0.0065,0.0065,0.0044,0.0045,0,0,0,0,0,0,0.0163,0.0157,0.0147,0.0145,0.0151,0.0134,0.0132,0.0132,0.0108,0.0105,0.0121,0.012,0.0087,0.0084,0.008,0.0088,0.0066,0.0065,0.0064,0.0044,0.0045,0.0045,0,0,0,0,0,0,0.0163,0.0162,0.0148,0.0151,0.0148,0.0134,0.0134,0.0131,0.0128,0.0106,0.0103,0.012,0.0087,0.0082,0.0076,0.0085,0.0064,0.0063,0.0044,0.0044,0.0045,0.0092,0,0,0,0,0,0,0.0163,0.0162,0.0163,0.0151,0.0148,0.0147,0.0134,0.0131,0.0127,0.0126,0.0105,0.0101,0.0086,0.0078,0.0074,0.0083,0.0061,0.0043,0.0044,0.0045,0.009,0.0094,0.0097,0,0,0,0,0,0.0164,0.0169,0.0164,0.0162,0.0151,0.0147,0.0145,0.0134,0.0127,0.0129,0.0117,0.0102,0.0079,0.0077,0.0073,0.0081,0.0043,0.0044,0.0045,0.0088,0.0093,0.0097,0,0,0,0,0,0,0.0175,0.0167,0.0161,0.0163,0.0158,0.0145,0.0144,0.0137,0.0128,0.0126,0.0106,0.0102,0.0098,0.0083,0.0081,0.0077,0.0058,0.0058,0.0093,0.0097,0.0101,0.0113,0.006,0,0,0,0,0,0.0178,0.0179,0.017,0.0172,0.017,0.0157,0.0154,0.0147,0.0138,0.0134,0.0121,0.0106,0.0097,0.0093,0.0079,0.0078,0.0066,0.0079,0.0083,0.0087,0.0093,0.0085,0.0089,0.0047,0.0047,0.0047,0,0,0.0182,0.0179,0.0178,0.0174,0.0168,0.0174,0.0155,0.0153,0.016,0.0131,0.0134,0.0117,0.0099,0.0098,0.0095,0.0088,0.0093,0.0087,0.0091,0.0095,0.0087,0.0091,0.0094,0.0048,0.0048,0.0048,0,0,0.0196,0.0189,0.0196,0.0195,0.0189,0.0184,0.0186,0.0176,0.0172,0.0171,0.0154,0.0147,0.0129,0.0123,0.0117,0.0133,0.0111,0.0124,0.0156,0.0149,0.0152,0.0155,0.0149,0.0151,0.0129,0.0129,0.0129,0,0.0202,0.0211,0.0198,0.0207,0.0211,0.0193,0.0207,0.0202,0.0191,0.0197,0.0178,0.0163,0.0143,0.0153,0.0155,0.0142,0.0133,0.0142,0.0155,0.0157,0.0159,0.0152,0.0154,0.0131,0.0131,0.0131,0.0131,0,0.0222,0.023,0.0235,0.0243,0.0246,0.0253,0.0247,0.0248,0.0239,0.0238,0.0239,0.0212,0.0206,0.0196,0.0179,0.0189,0.0176,0.0159,0.0146,0.0167,0.0157,0.0158,0.0135,0.0134,0.0133,0.0133,0,0,0.0241,0.0249,0.0252,0.0264,0.0267,0.0273,0.0285,0.0297,0.0317,0.0295,0.0316,0.029,0.0275,0.0266,0.0243,0.0234,0.0236,0.0205,0.0204,0.0204,0.0222,0.0249,0.0252,0.0221,0.0222,0.0222,0.021,0,0.0264,0.029,0.0288,0.0318,0.0333,0.0325,0.0344,0.0352,0.0353,0.0367,0.034,0.0345,0.0303,0.0299,0.0284,0.0251,0.024,0.0241,0.0197,0.0196,0.0222,0.0255,0.0353,0.0354,0.0211,0.0211,0.0211,0,0.0291,0.0306,0.0335,0.0363,0.037,0.0385,0.0416,0.0432,0.0446,0.0446,0.0443,0.0419,0.0406,0.036,0.0319,0.0321,0.0275,0.0244,0.0242,0.0253,0.0225,0.0309,0.0361,0.0363,0.0212,0.0212,0.0212,0,0.0318,0.0344,0.037,0.0377,0.0402,0.0417,0.0434,0.0458,0.0485,0.0497,0.0516,0.0489,0.048,0.0423,0.0354,0.0335,0.0308,0.0272,0.0254,0.0255,0.0324,0.0331,0.038,0.024,0.024,0.024,0.024,0,0.0349,0.0372,0.0384,0.0399,0.0441,0.0448,0.0499,0.0513,0.0545,0.0595,0.0559,0.0585,0.0494,0.0464,0.0387,0.0338,0.0333,0.0273,0.026,0.0343,0.0351,0.0342,0.0309,0.0239,0.024,0.024,0.024,0,0.0375,0.0381,0.0415,0.0441,0.0453,0.0486,0.0539,0.0581,0.0605,0.0665,0.0669,0.0658,0.0631,0.0546,0.0462,0.0395,0.0348,0.031,0.0415,0.0416,0.0399,0.0364,0.0363,0.0378,0.0294,0.0294,0.0295,0,0.0391,0.0409,0.0445,0.047,0.0483,0.053,0.057,0.0605,0.0655,0.0719,0.0753,0.0743,0.076,0.0661,0.0558,0.0456,0.0397,0.0447,0.0425,0.0431,0.0382,0.0344,0.0354,0.0531,0.0534,0.0536,0.0538,0,0.0423,0.0432,0.0458,0.0508,0.0548,0.0601,0.0659,0.0705,0.0762,0.082,0.0891,0.0911,0.0856,0.0818,0.0681,0.0605,0.0489,0.0484,0.0472,0.0566,0.0547,0.0546,0.0496,0.0556,0.0554,0.0553,0.0552,0.0551,0.0447,0.0469,0.05,0.055,0.0598,0.0662,0.0712,0.0786,0.0871,0.0974,0.0994,0.1072,0.1043,0.0894,0.0783,0.0686,0.0609,0.0648,0.0602,0.0559,0.0594,0.0584,0.0637,0.0636,0.0635,0.0634,0.0633,0,0.0476,0.0498,0.0543,0.0598,0.0651,0.0673,0.0764,0.0821,0.0926,0.1062,0.114,0.1251,0.1186,0.1077,0.0943,0.0837,0.0783,0.0771,0.0758,0.0757,0.0754,0.0788,0.0901,0.0901,0.0901,0.0901,0.0901,0.0901,0.0491,0.0531,0.0548,0.0627,0.067,0.0738,0.0789,0.0882,0.099,0.1178,0.1313,0.1411,0.1434,0.1118,0.0966,0.0919,0.0854,0.0831,0.0749,0.0769,0.0755,0.0741,0.0769,0.0875,0.0875,0.0824,0.0823,0.0822]}],[{"header":{"parameterUnit":"m.s-1","parameterCategory":2,"la1":30.2991,"la2":30.254,"lo1":-89.0895,"lo2":-89.0444,"dy":0.0017,"dx":0.0017,"nx":28,"ny":28,"refTime":"2025-04-03T21:00:00:Z","depth":"2","parameterNumber":2,"parameterNumberName":"U-component_of_CURRENTS"},"data":[0,0,0,0,0,0,0,0,0,0,0,0,0,0,0,0,0,0,0,0,0,0,0,0,0,0,0,0,0,0,0,0,0,0,0,0,0,0,0,0,0,0,0,0,0,0,0,0,0,0,0,0,0,0,0,0,0,0,0.1788,0.1788,0,0.1801,0.1801,0.1801,0.1796,0.1796,0.1796,0.1796,0.1815,0.1816,0.1817,0,0,0,0,0,0,0,0,0,0,0,0,0,0.1781,0.1781,0.1788,0.1788,0.1788,0.1801,0.1801,0.1801,0.1796,0.1796,0.1796,0.1796,0.1815,0.1816,0.1817,0,0,0,0,0,0,0,0,0,0,0,0,0,0.1787,0.1781,0.1788,0.1788,0.1788,0.1801,0.1801,0.1801,0.1796,0.1796,0.1796,0.1796,0.1815,0.1816,0.1817,0.183,0,0,0.182,0.1821,0,0,0,0,0,0,0,0,0.1787,0.1787,0.1788,0.1788,0.1788,0.1797,0.1806,0.1811,0.1797,0.1793,0.1796,0.1795,0.1811,0.1812,0.1814,0.1831,0.1832,0.182,0.1821,0.1822,0.1822,0,0,0,0,0,0,0,0.1786,0.1787,0.1792,0.1788,0.1788,0.1795,0.1795,0.1807,0.1803,0.1793,0.1793,0.1796,0.1811,0.1813,0.1814,0.1832,0.182,0.1821,0.1822,0.1822,0.1887,0.1888,0,0,0,0,0,0,0.1785,0.1786,0.1792,0.1792,0.1788,0.1795,0.1796,0.1794,0.1802,0.1804,0.1796,0.1795,0.1811,0.1813,0.1815,0.1852,0.1822,0.1823,0.1823,0.1886,0.1887,0.1888,0,0,0,0,0,0,0.1785,0.1786,0.1791,0.1791,0.1792,0.1796,0.1794,0.1795,0.1799,0.1805,0.1806,0.18,0.1811,0.1814,0.183,0.1851,0.1823,0.1824,0.1884,0.1886,0.1887,0.1911,0,0,0,0,0,0,0.1785,0.1785,0.1786,0.179,0.1792,0.1804,0.1795,0.1795,0.1802,0.1801,0.1809,0.181,0.1811,0.1828,0.1831,0.1852,0.1825,0.1883,0.1885,0.1887,0.1909,0.1913,0.1917,0,0,0,0,0,0.1784,0.1787,0.1786,0.1787,0.1792,0.1804,0.1806,0.1807,0.1802,0.1809,0.1813,0.181,0.1843,0.183,0.1833,0.1855,0.1882,0.1885,0.1887,0.1907,0.1913,0.1917,0,0,0,0,0,0,0.1786,0.1787,0.1786,0.1789,0.1798,0.1804,0.1811,0.1811,0.1819,0.1818,0.1819,0.1822,0.1847,0.1848,0.1833,0.1881,0.1864,0.1867,0.1879,0.1884,0.1888,0.1894,0.1826,0,0,0,0,0,0.1786,0.1787,0.1794,0.1797,0.1802,0.1807,0.1812,0.1814,0.1822,0.1824,0.183,0.1841,0.1859,0.1868,0.1881,0.1904,0.1911,0.1922,0.1926,0.1929,0.1937,0.1972,0.198,0.1896,0.1896,0.1896,0,0,0.1787,0.1789,0.1789,0.1798,0.1804,0.1817,0.1809,0.1821,0.1834,0.1827,0.1844,0.1854,0.1869,0.1895,0.1907,0.1898,0.1955,0.1932,0.1935,0.1941,0.1975,0.1983,0.1991,0.1897,0.1897,0.1897,0,0,0.1793,0.1792,0.1797,0.1807,0.182,0.1826,0.1831,0.1841,0.1847,0.1865,0.1868,0.1891,0.1909,0.1929,0.1941,0.1977,0.1976,0.1981,0.2006,0.2039,0.2046,0.2053,0.2062,0.2069,0.1982,0.1983,0.1983,0,0.1795,0.18,0.1803,0.1815,0.1825,0.1832,0.1846,0.1857,0.1871,0.1885,0.1874,0.1921,0.1929,0.1974,0.1986,0.1987,0.1996,0.1984,0.2044,0.2051,0.2057,0.2065,0.2072,0.1984,0.1984,0.1984,0.1983,0,0.1806,0.1814,0.1821,0.1836,0.1849,0.1863,0.1879,0.1895,0.1901,0.1915,0.1955,0.1968,0.1998,0.2006,0.2006,0.2059,0.2047,0.2045,0.203,0.2067,0.2073,0.208,0.1986,0.1985,0.1985,0.1985,0,0,0.1799,0.1823,0.1825,0.1833,0.1861,0.1868,0.1901,0.1931,0.1952,0.1973,0.2003,0.2042,0.2052,0.2067,0.2075,0.2101,0.2145,0.2091,0.2092,0.2096,0.2205,0.2181,0.2186,0.2153,0.2155,0.2156,0.2187,0,0.1807,0.1826,0.1841,0.1863,0.1873,0.1897,0.1924,0.1955,0.1979,0.2009,0.2042,0.2071,0.2075,0.2086,0.2121,0.214,0.2168,0.2136,0.2172,0.2173,0.2145,0.2196,0.1974,0.1982,0.2194,0.2195,0.2196,0,0.181,0.1822,0.1841,0.187,0.1878,0.1894,0.1936,0.1963,0.2019,0.2039,0.2086,0.2104,0.2157,0.2143,0.2213,0.2192,0.2207,0.2215,0.2217,0.2194,0.2164,0.1983,0.1987,0.2208,0.2207,0.2206,0.2206,0,0.1789,0.182,0.1832,0.1842,0.1879,0.1895,0.1919,0.1971,0.1999,0.2057,0.2081,0.2146,0.2171,0.2214,0.2242,0.2231,0.2303,0.2288,0.2281,0.2277,0.2097,0.2076,0.2341,0.2341,0.2341,0.2341,0.2341,0,0.1784,0.1792,0.1819,0.1824,0.1844,0.1876,0.1907,0.1945,0.2,0.2036,0.2093,0.2123,0.2191,0.2236,0.2259,0.2297,0.2324,0.2299,0.2296,0.2098,0.2078,0.228,0.2273,0.2342,0.2341,0.2341,0.2341,0,0.1756,0.1776,0.1788,0.1822,0.1831,0.1843,0.1891,0.1916,0.1976,0.2022,0.204,0.2118,0.2178,0.2238,0.2299,0.2313,0.2348,0.2351,0.2107,0.2076,0.2291,0.2284,0.2349,0.2349,0.2348,0.2348,0.2348,0,0.1741,0.1745,0.1773,0.1778,0.1791,0.1815,0.1834,0.1896,0.1923,0.201,0.2026,0.2102,0.2136,0.2226,0.2235,0.2274,0.2345,0.2123,0.2075,0.2307,0.2297,0.2291,0.2285,0.1829,0.1825,0.1821,0.1819,0,0.1717,0.1728,0.1739,0.1745,0.1758,0.177,0.18,0.1815,0.1888,0.1924,0.1961,0.199,0.2061,0.2,0.2074,0.2071,0.2102,0.2055,0.2357,0.1879,0.1825,0.1813,0.1823,0.1786,0.1789,0.1792,0.1794,0.1795,0.17,0.1698,0.171,0.171,0.172,0.1709,0.1695,0.1721,0.174,0.1755,0.1834,0.1816,0.1845,0.1835,0.1796,0.1781,0.1943,0.1875,0.1882,0.1894,0.1846,0.1797,0.1742,0.1744,0.1747,0.1749,0.1751,0,0.167,0.1672,0.1671,0.1661,0.1636,0.1659,0.1658,0.1619,0.1593,0.162,0.1619,0.15,0.1453,0.15,0.141,0.1446,0.1387,0.1408,0.13,0.1334,0.1364,0.1285,0.1034,0.1032,0.103,0.1028,0,0,0.1658,0.1638,0.1629,0.1572,0.1561,0.1493,0.147,0.1423,0.141,0.1351,0.1318,0.1378,0.145,0.1218,0.1194,0.1097,0.1203,0.105,0.1624,0.153,0.1557,0.1635,0.1553,0,0,0,0,0]},{"header":{"parameterUnit":"m.s-1","parameterCategory":2,"la1":30.2991,"la2":30.254,"lo1":-89.0895,"lo2":-89.0444,"dy":0.0017,"dx":0.0017,"nx":28,"ny":28,"refTime":"2025-04-03T21:00:00:Z","depth":"2","parameterNumber":3,"parameterNumberName":"V-component_of_CURRENTS"},"data":[0,0,0,0,0,0,0,0,0,0,0,0,0,0,0,0,0,0,0,0,0,0,0,0,0,0,0,0,0,0,0,0,0,0,0,0,0,0,0,0,0,0,0,0,0,0,0,0,0,0,0,0,0,0,0,0,0,0,0.01,0.01,0,0.0076,0.0076,0.0076,0.0058,0.0058,0.0058,0.0058,0.0019,0.0018,0.0017,0,0,0,0,0,0,0,0,0,0,0,0,0,0.0113,0.0113,0.01,0.01,0.01,0.0076,0.0076,0.0075,0.0058,0.0058,0.0058,0.0058,0.0019,0.0018,0.0017,0,0,0,0,0,0,0,0,0,0,0,0,0,0.01,0.0113,0.01,0.0089,0.0088,0.0076,0.0076,0.0075,0.0058,0.0058,0.0058,0.0058,0.002,0.0018,0.0017,0.001,0,0,0.0012,0.0012,0,0,0,0,0,0,0,0,0.0101,0.0099,0.0091,0.009,0.0088,0.0071,0.0066,0.0053,0.0058,0.0069,0.0058,0.0058,0.0035,0.0033,0.0028,0.0008,0.0007,0.0012,0.0011,0.0011,0.001,0,0,0,0,0,0,0,0.0102,0.01,0.009,0.0091,0.0089,0.0079,0.0077,0.0063,0.0052,0.0068,0.0067,0.0065,0.0034,0.0029,0.0027,0.0006,0.0012,0.0011,0.001,0.0009,-0.0009,-0.0009,0,0,0,0,0,0,0.0107,0.0101,0.0091,0.0089,0.0095,0.0079,0.0077,0.0076,0.0053,0.0049,0.0065,0.0064,0.0032,0.0028,0.0025,0.0034,0.0011,0.0009,0.0008,-0.001,-0.0009,-0.0009,0,0,0,0,0,0,0.0107,0.0106,0.0092,0.0095,0.0093,0.0079,0.0078,0.0076,0.0073,0.0051,0.0047,0.0065,0.0031,0.0027,0.0021,0.0031,0.0009,0.0007,-0.001,-0.0009,-0.0009,0.0039,0,0,0,0,0,0,0.0108,0.0107,0.0108,0.0096,0.0093,0.0091,0.0078,0.0075,0.0072,0.0071,0.005,0.0046,0.0031,0.0024,0.002,0.0029,0.0006,-0.0011,-0.001,-0.0009,0.0037,0.0041,0.0045,0,0,0,0,0,0.0108,0.0113,0.0108,0.0107,0.0095,0.0092,0.0089,0.0078,0.0072,0.0074,0.0062,0.0047,0.0025,0.0023,0.0018,0.0027,-0.0011,-0.001,-0.0009,0.0035,0.004,0.0045,0,0,0,0,0,0,0.012,0.0111,0.0106,0.0108,0.0102,0.0089,0.0089,0.0082,0.0074,0.0072,0.0052,0.0047,0.0044,0.0029,0.0027,0.0023,0.0004,0.0004,0.004,0.0044,0.0048,0.006,0.0005,0,0,0,0,0,0.0123,0.0124,0.0115,0.0116,0.0115,0.0102,0.0099,0.0093,0.0084,0.008,0.0066,0.0052,0.0044,0.0039,0.0026,0.0025,0.0013,0.0027,0.0031,0.0035,0.0041,0.0033,0.0037,-0.0006,-0.0006,-0.0006,0,0,0.0127,0.0123,0.0123,0.0119,0.0113,0.0119,0.01,0.0099,0.0106,0.0077,0.0081,0.0064,0.0046,0.0046,0.0043,0.0035,0.0041,0.0036,0.0039,0.0043,0.0034,0.0038,0.0042,-0.0005,-0.0006,-0.0006,0,0,0.014,0.0133,0.0141,0.014,0.0135,0.013,0.0132,0.0122,0.0119,0.0119,0.0102,0.0095,0.0078,0.0072,0.0066,0.0083,0.006,0.0075,0.0107,0.0099,0.0103,0.0106,0.0099,0.0101,0.008,0.008,0.008,0,0.0147,0.0155,0.0142,0.0152,0.0156,0.0139,0.0153,0.0148,0.0138,0.0144,0.0126,0.0112,0.0092,0.0102,0.0106,0.0093,0.0083,0.0092,0.0105,0.0108,0.011,0.0102,0.0104,0.0082,0.0082,0.0082,0.0081,0,0.0167,0.0175,0.018,0.0188,0.0191,0.0199,0.0194,0.0195,0.0187,0.0186,0.0188,0.0161,0.0156,0.0147,0.013,0.014,0.0127,0.011,0.0096,0.0118,0.0107,0.0108,0.0086,0.0085,0.0084,0.0083,0,0,0.0185,0.0193,0.0197,0.0209,0.0212,0.0219,0.0231,0.0244,0.0264,0.0243,0.0264,0.024,0.0226,0.0217,0.0194,0.0185,0.0188,0.0157,0.0155,0.0154,0.0172,0.0198,0.02,0.0173,0.0174,0.0174,0.016,0,0.0209,0.0234,0.0232,0.0263,0.0277,0.0271,0.029,0.0298,0.03,0.0315,0.0289,0.0294,0.0253,0.025,0.0236,0.0203,0.0192,0.0193,0.0147,0.0146,0.017,0.0203,0.0172,0.016,0.016,0.016,0.0161,0,0.0235,0.025,0.028,0.0308,0.0314,0.033,0.0362,0.0378,0.0393,0.0393,0.039,0.0368,0.0355,0.031,0.0269,0.0272,0.0226,0.0194,0.0193,0.0201,0.0173,0.0137,0.0161,0.0161,0.0161,0.0161,0.0161,0,0.0261,0.0288,0.0314,0.0322,0.0346,0.0362,0.038,0.0404,0.0431,0.0444,0.0463,0.0437,0.0428,0.0372,0.0303,0.0285,0.0256,0.0221,0.0201,0.0202,0.016,0.0158,0.0189,0.0189,0.0189,0.0189,0.0189,0,0.0293,0.0316,0.0328,0.0343,0.0386,0.0393,0.0444,0.0458,0.0491,0.054,0.0505,0.053,0.0441,0.0411,0.0335,0.0285,0.028,0.0219,0.0207,0.0177,0.0176,0.0161,0.0157,0.0188,0.0188,0.0189,0.0189,0,0.0319,0.0325,0.0359,0.0386,0.0398,0.0431,0.0484,0.0525,0.0549,0.0609,0.0613,0.0602,0.0574,0.049,0.0407,0.034,0.0277,0.0254,0.023,0.0216,0.0216,0.0215,0.0233,0.0234,0.0235,0.0236,0.0236,0,0.0335,0.0353,0.0389,0.0415,0.0428,0.0475,0.0515,0.055,0.0598,0.0661,0.0694,0.0683,0.0694,0.0594,0.0462,0.0352,0.0321,0.0252,0.0214,0.0238,0.0223,0.0221,0.022,0.0168,0.0168,0.0168,0.0168,0,0.0368,0.0376,0.0403,0.0452,0.0493,0.0545,0.0602,0.0647,0.0703,0.0756,0.0823,0.0837,0.0754,0.0633,0.0486,0.0399,0.027,0.025,0.0279,0.0176,0.018,0.0164,0.0164,0.0168,0.0168,0.0168,0.0168,0.0168,0.0392,0.0414,0.0445,0.0495,0.0542,0.0605,0.0655,0.0706,0.0783,0.0834,0.0879,0.0869,0.077,0.0558,0.0434,0.0281,0.0306,0.0218,0.0217,0.0216,0.0225,0.0231,0.023,0.0231,0.0231,0.0231,0.0232,0,0.0414,0.0443,0.0488,0.0543,0.0584,0.0617,0.0706,0.0722,0.0791,0.0834,0.087,0.074,0.0646,0.0519,0.0299,0.0205,0.0162,0.0153,0.0108,0.011,0.0112,0.0114,0.0091,0.009,0.0089,0.0088,0,0,0.0428,0.0463,0.048,0.0551,0.06,0.0642,0.0691,0.071,0.073,0.0734,0.0724,0.0747,0.0651,0.0453,0.0323,0.0197,0.0166,0.0163,0.0288,0.0252,0.0254,0.0166,0.0174,0,0,0,0,0]}],[{"header":{"parameterUnit":"m.s-1","parameterCategory":2,"la1":30.2991,"la2":30.254,"lo1":-89.0895,"lo2":-89.0444,"dy":0.0017,"dx":0.0017,"nx":28,"ny":28,"refTime":"2025-04-03T21:00:00:Z","depth":"4","parameterNumber":2,"parameterNumberName":"U-component_of_CURRENTS"},"data":[0,0,0,0,0,0,0,0,0,0,0,0,0,0,0,0,0,0,0,0,0,0,0,0,0,0,0,0,0,0,0,0,0,0,0,0,0,0,0,0,0,0,0,0,0,0,0,0,0,0,0,0,0,0,0,0,0,0,0.1209,0.1209,0,0.1225,0.1225,0.1225,0.1252,0.1253,0.1253,0.1254,0.1303,0.1304,0.1305,0,0,0,0,0,0,0,0,0,0,0,0,0,0.1193,0.1193,0.1209,0.1209,0.1209,0.1225,0.1225,0.1225,0.1252,0.1253,0.1253,0.1254,0.1303,0.1304,0.1305,0,0,0,0,0,0,0,0,0,0,0,0,0,0.1203,0.1193,0.1209,0.1225,0.1227,0.1225,0.1225,0.1225,0.1252,0.1253,0.1254,0.1254,0.1303,0.1304,0.1305,0.1295,0,0,0.1308,0.1309,0,0,0,0,0,0,0,0,0.1202,0.1203,0.1223,0.1224,0.1226,0.1238,0.1238,0.1251,0.1252,0.1242,0.1254,0.1255,0.1284,0.1287,0.1287,0.1297,0.1299,0.1309,0.1309,0.131,0.131,0,0,0,0,0,0,0,0.1201,0.1203,0.1214,0.1223,0.1225,0.1229,0.1231,0.124,0.1258,0.1242,0.1245,0.1248,0.1286,0.1285,0.1288,0.13,0.1309,0.131,0.131,0.1311,0.1392,0.1394,0,0,0,0,0,0,0.1201,0.1202,0.1214,0.1215,0.1217,0.1229,0.1231,0.1233,0.1257,0.1262,0.1247,0.1249,0.1283,0.1287,0.129,0.1351,0.131,0.1311,0.1312,0.1391,0.1393,0.1394,0,0,0,0,0,0,0.12,0.1201,0.1213,0.121,0.1212,0.1228,0.123,0.1233,0.1256,0.126,0.1265,0.127,0.1284,0.1288,0.1321,0.1351,0.1311,0.1312,0.1389,0.1391,0.1393,0.1429,0,0,0,0,0,0,0.12,0.1201,0.1215,0.121,0.1212,0.123,0.1229,0.1232,0.1256,0.1259,0.1282,0.1286,0.1285,0.132,0.1323,0.1352,0.1313,0.1387,0.139,0.1393,0.1426,0.1432,0.1437,0,0,0,0,0,0.1199,0.1209,0.1216,0.1218,0.1226,0.123,0.1232,0.1246,0.1256,0.127,0.1288,0.1286,0.134,0.1321,0.1325,0.1355,0.1386,0.1389,0.1393,0.1423,0.143,0.1437,0,0,0,0,0,0,0.1211,0.1213,0.122,0.1232,0.124,0.1236,0.1253,0.1259,0.1282,0.1295,0.1298,0.1303,0.1345,0.1346,0.1326,0.1389,0.1365,0.1369,0.1387,0.1394,0.14,0.1394,0.1314,0,0,0,0,0,0.1219,0.123,0.123,0.1244,0.125,0.1256,0.1265,0.1273,0.1285,0.1298,0.1313,0.1335,0.1356,0.1372,0.1388,0.1417,0.1422,0.1442,0.1448,0.1453,0.1452,0.1494,0.1503,0.1405,0.1405,0.1405,0,0,0.1229,0.1232,0.1239,0.1248,0.1257,0.1265,0.1264,0.1284,0.1298,0.1299,0.1336,0.1355,0.1369,0.1404,0.1424,0.1412,0.1483,0.1457,0.1461,0.1457,0.1499,0.1508,0.1516,0.1407,0.1407,0.1407,0,0,0.1241,0.1256,0.1266,0.1273,0.1289,0.1291,0.1302,0.1313,0.133,0.1359,0.137,0.1406,0.1435,0.1452,0.1463,0.151,0.1511,0.1524,0.1549,0.159,0.1599,0.1606,0.1619,0.1627,0.1528,0.1528,0.1528,0,0.1256,0.1262,0.1271,0.128,0.1289,0.1304,0.1315,0.1331,0.1354,0.1374,0.138,0.1442,0.1455,0.1499,0.1517,0.1522,0.1539,0.1519,0.1597,0.1604,0.1611,0.1623,0.1632,0.153,0.153,0.153,0.153,0,0.1262,0.1279,0.1287,0.1301,0.1314,0.1329,0.1344,0.1372,0.1396,0.1412,0.1469,0.1492,0.153,0.1545,0.1544,0.1605,0.1597,0.1598,0.1576,0.1623,0.1633,0.1641,0.1533,0.1532,0.1532,0.1531,0,0,0.126,0.1287,0.1292,0.1301,0.1327,0.1333,0.1369,0.1397,0.1425,0.1467,0.1507,0.1555,0.158,0.1594,0.161,0.1644,0.1703,0.1645,0.1646,0.1651,0.1784,0.1662,0.1659,0.1725,0.1727,0.1728,0.1769,0,0.1264,0.1281,0.1296,0.1318,0.1324,0.1354,0.138,0.1415,0.1452,0.1496,0.1541,0.1587,0.1595,0.1625,0.1664,0.1696,0.1728,0.1691,0.1743,0.1744,0.1625,0.1665,0.1734,0.1775,0.1777,0.1778,0.1779,0,0.1256,0.1269,0.129,0.132,0.1328,0.135,0.1397,0.1425,0.149,0.1523,0.1585,0.1619,0.1685,0.1682,0.1766,0.1747,0.177,0.1787,0.1789,0.1666,0.1637,0.1721,0.1794,0.1793,0.1791,0.179,0.179,0,0.1229,0.1261,0.1279,0.1289,0.1328,0.1354,0.1384,0.1441,0.1472,0.1552,0.1588,0.1665,0.1713,0.1766,0.1806,0.18,0.1882,0.1876,0.1785,0.1776,0.1857,0.1849,0.1933,0.1933,0.1932,0.1932,0.1932,0,0.1206,0.1222,0.1273,0.128,0.1309,0.1345,0.1389,0.143,0.1497,0.1533,0.1609,0.1644,0.1742,0.1795,0.1824,0.1822,0.1903,0.1788,0.1782,0.187,0.1863,0.1862,0.1854,0.1934,0.1934,0.1933,0.1933,0,0.1165,0.12,0.1223,0.1276,0.1296,0.132,0.1386,0.1413,0.1487,0.1538,0.1568,0.1655,0.1715,0.1785,0.1862,0.1829,0.1847,0.1827,0.1906,0.1903,0.1707,0.17,0.1724,0.172,0.1717,0.1714,0.1712,0,0.1141,0.1152,0.1215,0.1232,0.1261,0.1305,0.1331,0.1403,0.1427,0.1524,0.1535,0.1623,0.1672,0.1673,0.1759,0.1797,0.1786,0.1777,0.1746,0.1696,0.1689,0.1687,0.1684,0.1707,0.1706,0.1705,0.1704,0,0.1098,0.1136,0.1158,0.1193,0.1226,0.1248,0.1291,0.1297,0.1374,0.1458,0.1459,0.1487,0.1545,0.1593,0.1633,0.1661,0.1772,0.1742,0.1749,0.172,0.1676,0.1671,0.1672,0.1693,0.1694,0.1696,0.1696,0,0.1075,0.1081,0.112,0.1139,0.1179,0.1171,0.12,0.1212,0.124,0.1338,0.1336,0.1427,0.1514,0.1522,0.1561,0.1575,0.156,0.1514,0.1532,0.1546,0.1472,0.1388,0.1311,0,0,0,0,0,0.1043,0.1039,0.1056,0.1067,0.1102,0.1119,0.1161,0.119,0.1265,0.1228,0.1273,0.1312,0.135,0.1399,0.1383,0.151,0.1584,0.1486,0.1544,0.1629,0.1643,0.1573,0,0,0,0,0,0,0.102,0.104,0.1033,0.1002,0.0998,0.1017,0.1039,0.1086,0.1061,0.1146,0.117,0.1241,0.1301,0.1352,0.1362,0.1382,0.1392,0.155,0.1546,0.1622,0.1634,0.1644,0.1578,0,0,0,0,0]},{"header":{"parameterUnit":"m.s-1","parameterCategory":2,"la1":30.2991,"la2":30.254,"lo1":-89.0895,"lo2":-89.0444,"dy":0.0017,"dx":0.0017,"nx":28,"ny":28,"refTime":"2025-04-03T21:00:00:Z","depth":"4","parameterNumber":3,"parameterNumberName":"V-component_of_CURRENTS"},"data":[0,0,0,0,0,0,0,0,0,0,0,0,0,0,0,0,0,0,0,0,0,0,0,0,0,0,0,0,0,0,0,0,0,0,0,0,0,0,0,0,0,0,0,0,0,0,0,0,0,0,0,0,0,0,0,0,0,0,-0.0038,-0.0038,0,-0.0053,-0.0053,-0.0054,-0.0075,-0.0076,-0.0076,-0.0076,-0.0111,-0.0112,-0.0113,0,0,0,0,0,0,0,0,0,0,0,0,0,-0.0027,-0.0027,-0.0038,-0.0038,-0.0038,-0.0053,-0.0053,-0.0054,-0.0075,-0.0076,-0.0076,-0.0076,-0.0111,-0.0112,-0.0113,0,0,0,0,0,0,0,0,0,0,0,0,0,-0.0036,-0.0027,-0.0038,-0.0051,-0.0052,-0.0053,-0.0053,-0.0054,-0.0075,-0.0076,-0.0076,-0.0077,-0.0111,-0.0112,-0.0113,-0.0108,0,0,-0.0116,-0.0116,0,0,0,0,0,0,0,0,-0.0036,-0.0037,-0.0049,-0.005,-0.0051,-0.0063,-0.0062,-0.0073,-0.0075,-0.0067,-0.0076,-0.0077,-0.0096,-0.0098,-0.01,-0.011,-0.0111,-0.0116,-0.0116,-0.0117,-0.0117,0,0,0,0,0,0,0,-0.0035,-0.0036,-0.0044,-0.0049,-0.005,-0.0055,-0.0057,-0.0064,-0.0079,-0.0067,-0.0069,-0.007,-0.0097,-0.0099,-0.0101,-0.0112,-0.0116,-0.0116,-0.0117,-0.0117,-0.0104,-0.0103,0,0,0,0,0,0,-0.0032,-0.0035,-0.0044,-0.0045,-0.0044,-0.0055,-0.0057,-0.0059,-0.0079,-0.0082,-0.0069,-0.0071,-0.0098,-0.01,-0.0103,-0.0083,-0.0117,-0.0118,-0.0118,-0.0105,-0.0104,-0.0103,0,0,0,0,0,0,-0.0032,-0.0032,-0.0043,-0.004,-0.0042,-0.0055,-0.0056,-0.0059,-0.0062,-0.008,-0.0084,-0.007,-0.0098,-0.0101,-0.01,-0.0085,-0.0118,-0.0119,-0.0106,-0.0104,-0.0103,-0.0054,0,0,0,0,0,0,-0.0031,-0.0032,-0.0031,-0.004,-0.0042,-0.0041,-0.0056,-0.0059,-0.0062,-0.0064,-0.0082,-0.0086,-0.0099,-0.0098,-0.0101,-0.0087,-0.0119,-0.0107,-0.0105,-0.0104,-0.0057,-0.0051,-0.0046,0,0,0,0,0,-0.0031,-0.0027,-0.0031,-0.0032,-0.0041,-0.004,-0.0042,-0.0053,-0.0061,-0.0058,-0.0066,-0.0085,-0.0089,-0.0098,-0.0101,-0.0088,-0.0108,-0.0106,-0.0104,-0.0059,-0.0052,-0.0047,0,0,0,0,0,0,-0.0023,-0.0029,-0.0034,-0.0033,-0.0035,-0.0044,-0.0043,-0.005,-0.0053,-0.0056,-0.0074,-0.0078,-0.0071,-0.0084,-0.0093,-0.0078,-0.0101,-0.01,-0.0067,-0.006,-0.0055,-0.0053,-0.012,0,0,0,0,0,-0.002,-0.0019,-0.0025,-0.0023,-0.0023,-0.0032,-0.0034,-0.004,-0.0045,-0.0047,-0.0057,-0.0064,-0.0064,-0.0066,-0.0071,-0.0063,-0.008,-0.0056,-0.0051,-0.0046,-0.0046,-0.0052,-0.0048,-0.0096,-0.0096,-0.0096,0,0,-0.0017,-0.0019,-0.0019,-0.0021,-0.0024,-0.0016,-0.0034,-0.0034,-0.0023,-0.005,-0.0039,-0.0048,-0.0057,-0.0046,-0.0045,-0.0057,-0.0041,-0.0044,-0.004,-0.0042,-0.005,-0.0045,-0.0041,-0.0095,-0.0095,-0.0095,0,0,-0.0006,-0.0011,-0.0006,-0.0003,-0.0004,-0.0005,-0.0003,-0.0008,-0.0007,0.0002,-0.001,-0.0007,-0.0013,-0.0011,-0.0013,0.0019,-0.0013,0.0016,0.0043,0.0038,0.0041,0.0044,0.003,0.0031,0.0018,0.0019,0.0019,0,-0.0002,0.0005,-0.0003,0.0006,0.0013,0.0003,0.0016,0.0019,0.0017,0.0026,0.0011,0.0017,0.0006,0.0027,0.0037,0.0031,0.0016,0.002,0.0044,0.0047,0.0049,0.0033,0.0034,0.0021,0.0021,0.0021,0.002,0,0.0014,0.0022,0.0027,0.0038,0.0044,0.0053,0.0059,0.0068,0.0066,0.007,0.0085,0.0073,0.0075,0.0076,0.0064,0.0081,0.0062,0.0051,0.0027,0.0057,0.0038,0.0038,0.0025,0.0024,0.0023,0.0023,0,0,0.002,0.0035,0.0038,0.0051,0.0062,0.0071,0.0094,0.0115,0.0137,0.0131,0.0154,0.0154,0.0142,0.014,0.0126,0.0121,0.0124,0.0093,0.0091,0.0076,0.0103,0.0094,0.0092,0.0114,0.0114,0.0115,0.0083,0,0.0037,0.006,0.0065,0.0096,0.011,0.0117,0.0144,0.0162,0.0173,0.0193,0.0184,0.0197,0.0169,0.0169,0.0161,0.0137,0.0126,0.0133,0.0077,0.0076,0.0063,0.0093,0.0116,0.0083,0.0083,0.0083,0.0083,0,0.0054,0.0068,0.0097,0.0131,0.0139,0.016,0.0201,0.0223,0.0251,0.0257,0.0263,0.0252,0.0251,0.0216,0.0185,0.0189,0.0148,0.0121,0.0119,0.0093,0.0067,0.0047,0.0082,0.0082,0.0082,0.0082,0.0082,0,0.0064,0.0094,0.0119,0.0129,0.0164,0.0185,0.0209,0.0244,0.0274,0.0296,0.0312,0.0304,0.03,0.0256,0.0201,0.0191,0.0158,0.0137,0.0088,0.0087,0.008,0.0077,0.0106,0.0106,0.0106,0.0106,0.0106,0,0.0081,0.0103,0.0127,0.0141,0.0184,0.0203,0.0254,0.0276,0.0314,0.0355,0.0343,0.0361,0.0309,0.0283,0.0221,0.0161,0.0172,0.0098,0.0083,0.0102,0.0101,0.008,0.0077,0.0105,0.0105,0.0106,0.0106,0,0.009,0.0103,0.0135,0.0173,0.0189,0.0221,0.028,0.0318,0.0349,0.0397,0.0404,0.0408,0.0377,0.032,0.0252,0.0192,0.0131,0.0101,0.0129,0.0115,0.0055,0.0055,0.0046,0.0045,0.0045,0.0044,0.0044,0,0.0098,0.0113,0.0155,0.0179,0.0198,0.0246,0.0284,0.0329,0.0368,0.0425,0.0446,0.0439,0.0427,0.0334,0.0264,0.0156,0.013,0.0087,0.0067,0.0065,0.0051,0.0052,0.0053,0.0044,0.0043,0.0043,0.0043,0,0.0114,0.0126,0.0152,0.0195,0.0234,0.0282,0.0335,0.0366,0.0422,0.0452,0.048,0.0443,0.0412,0.0336,0.0258,0.0174,0.0113,0.0082,0.0082,0.0062,0.0062,0.0049,0.005,0.0042,0.0042,0.0042,0.0042,0,0.0127,0.0143,0.0172,0.0212,0.0258,0.0301,0.0334,0.0381,0.0421,0.0479,0.0486,0.0461,0.0451,0.0346,0.0274,0.0198,0.0163,0.0113,0.011,0.011,0.0136,0.0145,0.0145,0,0,0,0,0,0.0138,0.0151,0.0187,0.0227,0.0271,0.0295,0.0361,0.0392,0.0444,0.0463,0.0477,0.0448,0.0363,0.0335,0.0256,0.0248,0.014,0.0149,0.0077,0.0034,0.0036,0.0054,0,0,0,0,0,0,0.0144,0.0172,0.0183,0.0227,0.0253,0.0303,0.0342,0.0381,0.0395,0.0437,0.0399,0.04,0.0321,0.0403,0.0244,0.0225,0.0161,0.012,0.0117,0.0033,0.0035,0.0036,0.0055,0,0,0,0,0]}]]